Torna al catalogo

STARLINK-5038

AttivoComunicazioniVLEO
NORAD 56472·PAYLOAD·🇺🇸 United States

Lanciato May 10, 2023 da Vandenberg Space Force Base

Loading…

Prossimi Passaggi (prossime 24 ore)

TLE

AggiornatoSource: CelesTrak SupGP

Epoca: Sep 14, 2026, 13:54 UTC

1 56472C 23064AA  26257.57965278  .00433250  00000+0  33424-1 0  2570
2 56472  70.0007   8.2297 0003108 272.8327  45.1146 15.01287040    11

Traccia STARLINK-5038 in tempo reale con AllMySat

Download on the App Store